Location: ?????
(31.8092°N, 35.2590°E)
Time: 19:52:49
(UTC+00:00)

Resurs 1-4 Rocket - Pass Details

Date: 20 June 2021
Orbit: 800 x 813 km, 98.6° (Epoch: 23 July)

Event Time Altitude Azimuth Distance (km) Brightness Sun altitude
Rises 23:11:33 0° 11° (N) 3,337 6.4 -30.6°
Reaches altitude 10° 23:13:53 10° 10° (N) 2,403 5.4 -30.4°
Enters shadow 23:18:23 64° 354° (N) 898 2.4 -30.0°
